Location: Dzierzno
(50.6159°N, 19.2852°E)
Time: 22:00:06
(UTC+00:00)

CZ-4C R/B - Pass Details

Date: 18 November 2025
Orbit: 487 x 1492 km, 63.4° (Epoch: 05 December)

Event Time Altitude Azimuth Distance (km) Brightness Sun altitude
Rises 16:57:02 0° 283° (WNW) 3,054 6.4 -19.4°
Reaches altitude 10° 16:59:32 10° 297° (WNW) 2,279 5.3 -19.8°
Maximum altitude 17:03:55 25° 353° (N) 1,688 3.7 -20.5°
Enters shadow 17:06:45 19° 30° (NNE) 2,138 4.0 -20.9°
